Pardubice, Czech Republic

7:37 AM CET on February 09, 2016 (GMT +0100)
Pardubice

Weather History for LKPD - October, 2013

Change the Weather History Date:

Tuesday, October 29, 2013

  Actual Average Record
Temperature  
Mean Temperature 56 °F -  
Max Temperature 62 °F - - ()
Min Temperature 50 °F - - ()
Degree Days  
Heating Degree Days 9    
Growing Degree Days 6 (Base 50)    
Moisture  
Dew Point 45 °F    
Average Humidity 69    
Maximum Humidity 82    
Minimum Humidity 55    
Precipitation  
Precipitation 0.00 in - - ()
Sea Level Pressure  
Sea Level Pressure 29.96 in    
Wind  
Wind Speed 7 mph ()    
Max Wind Speed 14 mph    
Max Gust Speed -    
Visibility 6.2 miles    
Events Rain    
T = Trace of Precipitation, MM = Missing Value Source: Averaged Metar Reports

Daily Weather History Graph

Daily Weather History Graph

Search for Another Location

Airport or City:

Trip Planner

Search our weather history database for the weather conditions in past years. The results will help you decide how hot, cold, wet, or windy it might be!

Date:

Astronomy

Oct. 29, 2013 Rise Set
Actual Time 6:41 AM CET 4:38 PM CET
Civil Twilight 6:08 AM CET 5:12 PM CET
Nautical Twilight 5:30 AM CET 5:50 PM CET
Astronomical Twilight 4:52 AM CET 6:28 PM CET
Moon 12:44 AM CET (10/29) 2:10 PM CET (10/29)
Length of Visible Light 11h 04m
Length of Day
9h 57m
Waning Crescent, 27% of the Moon is Illuminated
Oct 29
Waning Crescent
Nov 3
New
Nov 10
First Quarter
Nov 17
Full
Nov 25
Last Quarter

Hourly Weather History & Observations

Time (CET) Temp. Dew Point Humidity Pressure Visibility Wind Dir Wind Speed Gust Speed Precip Events Conditions
12:00 AM 60.8 °F 48.2 °F 63% 29.83 in - WSW 6.9 mph - N/A   Clear
1:00 AM 62.6 °F 46.4 °F 55% 29.83 in - WSW 13.8 mph - N/A   Clear
2:00 AM 60.8 °F 48.2 °F 63% 29.83 in - WSW 6.9 mph - N/A   Clear
3:00 AM 59.0 °F 46.4 °F 63% 29.83 in - WSW 4.6 mph - N/A   Clear
4:00 AM 57.2 °F 46.4 °F 67% 29.86 in - West 6.9 mph - N/A   Clear
5:00 AM 57.2 °F 44.6 °F 63% 29.89 in - WSW 8.1 mph - N/A   Clear
6:00 AM 57.2 °F 44.6 °F 63% 29.89 in - WSW 6.9 mph - N/A   Clear
7:00 AM 57.2 °F 42.8 °F 59% 29.92 in - WSW 5.8 mph - N/A   Clear
8:02 AM 57.2 °F 42.8 °F 59% 29.95 in - SW 6.9 mph - N/A   Clear
9:00 AM 57.2 °F 42.8 °F 59% 29.95 in - WSW 9.2 mph - N/A   Clear
10:00 AM 55.4 °F 44.6 °F 67% 29.98 in - WSW 9.2 mph - N/A   Clear
11:00 AM 55.4 °F 44.6 °F 67% 30.01 in 6.2 mi West 12.7 mph - N/A Rain Light Rain
12:00 PM 53.6 °F 46.4 °F 77% 30.01 in 6.2 mi West 11.5 mph - N/A Rain Light Rain
1:00 PM 51.8 °F 46.4 °F 82% 30.01 in 6.2 mi WSW 6.9 mph - N/A Rain Light Rain
2:00 PM 53.6 °F 46.4 °F 77% 30.01 in - SW 5.8 mph - N/A   Clear
3:00 PM 53.6 °F 46.4 °F 77% 30.01 in - SW 6.9 mph - N/A   Clear
4:00 PM 53.6 °F 46.4 °F 77% 30.01 in - WSW 4.6 mph - N/A   Clear
5:00 PM 53.6 °F 44.6 °F 72% 30.01 in - SW 6.9 mph - N/A   Clear
6:00 PM 51.8 °F 44.6 °F 76% 30.04 in - WSW 5.8 mph - N/A   Clear
7:00 PM 50.0 °F 42.8 °F 76% 30.04 in - SW 4.6 mph - N/A   Clear
8:00 PM 50.0 °F 42.8 °F 76% 30.06 in - SW 4.6 mph - N/A   Clear
9:00 PM 51.8 °F 42.8 °F 71% 30.06 in - WSW 5.8 mph - N/A   Clear
10:00 PM 51.8 °F 42.8 °F 71% 30.06 in - WSW 6.9 mph - N/A   Clear
11:00 PM 50.0 °F 42.8 °F 76% 30.06 in - WSW 4.6 mph - N/A   Clear